Temperature
14 13 13 12 12 12 11 11 11 11 11 11 11 11 12 12 11 11 11 11 11 11 11 12 12 12 13 13 14 14 15 15 15 16 16 16 16 16 16 15 15 15 15
13 12 12 12 11 11 11 10 10 10 10 10 10 11 11 11 11 11 11 11 11 11 11 11 11 11 12 12 13 13 14 14 14 15 15 15 15 15 15 15 15 15 15
12 11 11 11 10 10 10 10 10 10 10 10 10 10 10 10 10 11 11 11 11 11 11 11 11 11 11 12 12 12 13 13 14 14 14 14 15 15 14 14 14 14 14
11 10 10 10 9 9 9 9 9 9 9 9 9 9 9 9 10 10 10 10 10 11 11 11 11 10 11 11 11 11 12 12 13 13 13 14 14 14 14 14 13 13 13
10 10 9 9 9 9 9 8 8 8 8 8 8 8 9 9 9 9 10 10 10 10 10 10 10 10 10 10 11 11 11 11 12 12 12 13 13 13 13 14 13 13 13
10 9 9 9 9 8 8 8 8 8 8 8 8 8 8 8 8 9 9 9 10 10 10 10 10 10 10 10 10 10 10 11 11 11 12 12 13 13 13 13 13 12 12
9 9 9 8 8 8 8 7 7 7 7 7 7 7 7 7 8 8 8 9 9 9 9 9 9 10 10 10 10 10 10 10 11 11 11 12 12 13 13 13 13 13 13
9 9 8 8 8 7 7 7 7 7 7 7 7 7 7 7 7 7 8 8 8 9 9 9 9 10 10 10 10 10 10 10 10 11 11 12 12 12 13 13 13 12 12
8 8 8 7 7 7 7 7 7 7 7 7 7 7 7 7 7 7 7 7 8 8 8 9 9 9 10 10 9 10 10 10 10 10 11 11 11 11 12 12 12 12 12
8 8 7 7 7 7 7 7 7 7 7 7 7 7 6 7 7 7 7 7 7 8 8 8 9 9 9 9 9 9 9 10 10 10 10 11 11 11 11 12 12 12 12
7 7 7 7 7 7 7 7 7 7 7 7 7 7 7 7 7 7 7 7 7 7 8 8 9 9 9 9 9 9 9 9 9 10 10 10 11 11 11 11 12 12 12
7 7 7 7 7 7 7 7 7 7 7 7 7 7 7 7 7 7 7 7 7 7 8 8 9 9 9 9 9 9 9 9 9 9 10 10 10 11 11 11 12 12 12
7 7 7 7 7 7 7 7 7 7 7 7 7 7 7 7 7 7 7 7 7 7 7 8 8 9 9 9 9 9 9 9 9 9 9 10 10 11 11 11 11 11 11
7 7 7 7 7 7 8 7 7 7 7 7 7 7 7 7 7 7 7 7 7 7 7 7 8 8 8 9 9 9 9 9 9 9 9 10 10 11 11 11 11 11 11
7 7 7 7 7 7 8 8 7 7 7 7 7 6 6 6 6 7 7 7 7 7 7 7 7 8 8 8 8 9 9 9 9 9 9 10 10 10 10 11 11 11 11
7 7 7 7 7 8 8 8 8 8 7 7 7 6 6 6 6 6 6 6 7 7 7 7 7 8 8 8 8 8 8 8 9 9 9 9 10 10 10 10 10 11 11
7 7 7 7 8 8 8 8 8 8 7 7 7 6 6 6 6 6 6 6 7 7 7 7 7 8 8 8 9 9 9 9 9 9 9 9 10 10 10 10 10 10 10
7 7 8 8 8 8 8 8 8 8 7 7 7 7 6 6 6 6 6 6 6 7 7 7 8 8 8 8 9 9 9 9 9 9 9 9 9 9 10 10 10 10 10
7 8 8 8 8 8 8 8 8 8 8 7 7 7 7 6 6 6 6 6 6 7 7 7 8 8 8 9 9 9 9 9 9 9 9 9 9 9 10 10 10 10 10
8 8 8 8 8 9 9 9 9 8 8 8 8 7 7 7 7 7 7 7 7 7 7 7 8 8 8 9 9 9 9 9 9 9 9 9 9 9 9 10 10 10 10
8 8 9 9 9 9 9 9 9 9 8 8 8 8 8 7 7 7 7 7 7 7 7 7 8 8 8 8 8 9 9 9 9 9 9 9 9 9 9 9 10 10 10
8 8 9 9 9 9 9 9 9 9 9 9 8 8 8 8 8 7 7 7 7 7 7 7 7 8 8 8 8 9 9 9 9 9 9 9 9 9 9 9 9 9 9
8 9 9 9 10 10 10 10 10 9 9 9 9 8 8 8 8 8 8 7 7 7 7 8 8 8 8 8 8 9 9 9 9 9 9 9 9 9 9 9 9 9 9
9 9 9 10 10 10 10 10 10 10 9 9 9 9 9 8 8 8 8 8 7 7 7 7 8 8 8 8 8 8 8 8 9 9 9 9 9 9 9 9 9 9 10
9 9 9 10 10 10 10 10 10 10 10 10 9 9 9 9 9 8 8 8 8 8 7 8 8 8 8 8 8 8 8 8 9 9 9 9 9 9 9 9 9 9 9
9 9 10 10 10 10 10 11 10 10 10 10 10 10 10 9 9 9 9 8 8 8 8 8 8 8 8 8 8 8 8 8 8 9 9 9 9 9 9 9 9 10 10
Wind_Speed
8 8 8 8 8 8 8 9 9 9 9 9 9 9 9 9 8 8 8 8 8 7 6 6 6 5 4 3 2 2 3 3 5 3 2 5 7 9 8 10 12 10 8
9 8 8 8 9 9 11 10 10 10 10 10 9 10 11 11 10 10 11 10 9 9 8 7 7 6 6 4 3 3 2 2 3 4 3 5 6 8 9 8 8 10 10
10 9 9 9 9 10 10 10 11 11 10 10 10 10 11 12 11 10 11 11 10 10 9 9 8 8 7 6 5 5 3 3 2 3 4 4 6 8 9 7 8 7 9
11 11 10 10 10 10 11 11 11 11 11 11 11 10 11 11 12 11 11 11 11 10 10 9 9 9 9 8 7 7 5 4 4 4 4 4 6 8 9 9 7 6 6
11 12 11 10 10 10 11 11 11 11 14 12 11 11 11 11 13 12 11 12 11 11 11 10 10 10 11 9 8 7 7 6 5 5 5 5 5 9 9 8 9 7 6
11 12 12 11 11 11 12 12 11 11 11 11 12 12 13 14 14 10 8 9 9 11 10 10 10 10 12 12 10 9 7 7 7 6 5 6 7 7 8 9 9 8 5
11 12 12 12 12 12 15 14 13 12 12 11 12 12 12 13 15 12 11 8 9 9 10 10 12 13 13 11 12 13 11 11 10 7 7 6 5 6 9 11 11 10 6
12 12 12 12 13 13 14 14 13 12 11 11 12 13 12 14 14 14 12 10 10 10 10 11 11 10 10 10 11 11 11 11 12 10 8 7 5 5 7 8 10 8 7
14 13 13 14 15 15 14 14 13 12 12 12 12 12 12 12 13 13 12 8 9 11 12 12 12 11 12 12 9 9 9 9 13 14 13 11 10 9 7 6 9 10 8
15 14 14 14 15 16 15 14 12 11 12 12 12 11 12 11 11 12 12 8 9 9 9 10 13 14 14 14 10 9 9 8 7 9 10 10 9 9 12 10 10 11 9
15 15 15 14 14 15 13 11 11 11 11 11 11 10 10 10 10 13 14 9 9 8 8 8 9 15 16 17 13 8 8 7 5 6 7 8 8 8 10 10 10 10 10
15 15 15 15 15 14 12 11 11 10 10 10 9 9 8 7 8 10 14 14 10 7 6 6 6 12 16 17 13 10 10 7 4 5 6 7 8 9 9 10 10 9 7
15 15 15 15 14 13 12 11 10 8 8 8 7 7 6 5 5 9 13 14 13 8 4 4 4 8 11 11 13 12 9 6 6 6 6 7 8 9 8 8 9 8 6
15 15 14 14 14 12 9 8 8 7 7 7 7 6 5 4 2 4 6 8 10 9 7 5 8 9 7 8 9 8 7 7 7 7 6 6 6 7 8 8 8 9 7
14 14 14 13 12 11 10 7 7 5 4 5 6 5 5 3 2 1 3 4 5 6 6 6 6 6 7 7 7 9 9 9 9 7 6 5 6 7 8 9 9 9 8
13 13 12 11 11 10 9 8 6 6 5 5 5 5 3 2 2 2 1 1 3 4 4 6 7 8 9 9 9 9 10 9 9 8 7 6 7 8 8 8 9 10 10
13 13 12 11 10 10 9 8 7 4 5 6 6 5 4 3 1 0 1 2 2 4 5 7 7 8 9 9 8 9 9 9 9 8 8 7 7 8 9 10 11 11 10
14 13 12 10 10 10 8 8 6 5 3 2 4 6 5 4 3 2 2 3 4 5 7 8 8 8 8 8 8 8 8 8 8 8 8 8 9 8 10 11 11 12 12
13 10 10 11 10 9 7 7 6 5 4 2 1 3 5 4 4 4 4 5 6 7 8 8 7 7 7 7 7 7 8 7 8 8 8 9 9 9 10 11 11 14 12
10 12 12 11 10 8 7 6 6 5 4 3 2 1 3 4 4 5 5 6 6 6 6 6 6 6 6 6 6 6 6 6 7 8 8 9 9 10 10 11 12 13 11
11 10 12 10 8 7 6 6 5 5 4 3 2 2 2 4 4 5 5 6 6 5 5 5 5 5 6 5 6 7 7 6 6 7 8 8 9 10 10 10 12 12 11
10 9 9 9 7 7 7 6 5 5 5 4 3 2 3 4 4 4 4 3 3 4 4 4 4 5 5 5 6 6 6 6 6 7 8 8 9 10 10 10 10 10 11
10 10 9 8 7 6 5 4 4 4 4 4 4 3 2 2 2 2 2 2 2 3 3 3 3 4 4 4 5 6 6 6 7 8 9 9 9 9 10 11 12 12 12
10 10 9 8 7 6 5 5 4 4 4 4 4 3 3 2 1 2 2 2 2 1 0 1 1 3 5 5 4 5 5 5 6 7 10 10 10 10 10 11 11 12 12
9 9 8 7 7 6 5 5 4 3 3 4 4 4 3 1 1 1 1 1 1 2 2 2 1 3 5 6 5 6 7 8 7 6 8 9 11 11 11 12 11 11 11
8 8 8 7 7 6 5 5 5 3 3 3 4 3 3 2 1 0 0 1 2 2 3 3 5 6 7 7 9 10 9 8 7 5 6 9 11 11 11 9 12 12 12
Wind_Direction
320 315 310 305 303 300 295 294 293 290 286 281 278 273 263 251 235 221 221 221 220 226 232 230 230 233 242 261 268 271 263 251 247 235 157 143 141 135 133 132 140 133 116
323 322 320 321 320 314 309 306 303 298 294 289 281 277 273 264 244 229 224 226 219 219 222 226 227 228 225 223 233 246 247 243 233 228 184 164 157 148 150 156 149 131 122
323 322 321 318 314 308 304 301 300 298 294 289 283 277 274 271 261 244 231 225 222 219 215 218 223 223 224 219 215 221 224 236 218 225 210 183 168 162 156 148 126 124 124
322 318 312 309 305 302 300 297 294 292 290 285 281 277 275 272 266 257 243 231 227 223 218 215 218 220 220 217 220 215 216 220 221 228 225 197 182 172 162 151 145 143 138
314 309 307 304 302 300 299 297 294 292 290 289 285 280 275 270 263 256 249 241 230 226 220 216 219 220 221 216 221 207 206 207 211 217 219 213 199 178 175 167 160 148 136
312 309 305 302 303 302 300 296 294 292 290 288 285 280 275 270 267 259 249 252 238 230 222 216 222 223 222 212 211 205 200 209 212 208 215 216 206 194 179 170 160 157 157
310 305 306 307 307 306 307 304 299 297 294 288 284 278 271 266 264 257 244 244 245 235 228 221 225 226 210 207 209 210 213 218 216 208 214 220 207 196 187 178 173 173 159
312 312 314 313 311 309 305 300 297 294 290 286 282 277 270 264 255 243 234 232 243 240 231 221 217 231 226 209 209 210 210 215 217 217 220 220 221 207 198 187 172 159 134
317 317 317 314 311 308 303 299 298 294 290 285 280 274 267 262 252 236 224 232 236 238 236 228 215 218 220 209 210 215 214 218 219 218 211 211 206 205 193 175 170 165 157
321 319 316 312 308 304 300 297 295 292 288 287 282 275 268 262 248 228 213 228 232 233 231 234 224 213 208 201 204 210 216 220 228 216 215 216 211 205 195 190 182 175 160
321 316 313 310 306 300 298 297 296 293 289 285 282 277 268 257 242 224 211 220 226 227 225 224 222 208 200 197 199 204 213 219 225 223 209 209 207 206 200 196 190 183 175
318 315 313 310 308 306 303 299 297 295 293 289 284 281 272 253 234 222 211 215 226 232 228 228 214 197 196 194 196 198 193 200 224 228 220 211 206 204 199 193 191 188 188
317 315 313 311 307 302 301 302 302 300 296 296 293 289 283 262 229 218 211 214 220 231 245 227 189 178 183 194 204 193 185 201 218 227 226 220 208 201 186 180 178 169 163
316 315 313 310 308 307 305 303 301 302 305 311 310 305 299 287 251 211 206 212 215 223 231 210 176 170 181 193 187 195 204 215 216 222 222 223 204 185 180 171 169 161 154
318 315 314 311 309 308 306 303 302 307 301 297 310 317 317 312 351 308 218 206 202 204 201 195 193 185 197 207 203 197 204 212 220 220 216 216 197 184 177 171 166 164 165
319 318 315 313 313 313 313 309 293 276 256 254 262 286 313 18 47 30 62 178 185 189 201 209 210 208 209 213 211 207 207 208 208 206 210 205 195 184 176 172 171 170 167
317 315 313 313 316 316 317 314 312 295 249 249 261 264 265 293 326 344 169 181 192 181 211 221 216 216 220 222 220 216 214 208 202 199 201 199 191 182 176 173 172 170 168
318 313 312 313 317 316 315 314 315 323 323 282 234 239 244 249 251 242 203 200 212 211 224 228 221 217 218 221 222 222 218 209 200 198 196 191 185 183 179 175 174 172 166
317 315 319 317 315 315 318 321 330 341 336 325 232 195 223 224 228 233 213 233 237 222 220 226 227 225 220 216 219 219 211 205 197 193 191 184 182 181 177 175 174 169 163
314 311 311 312 312 317 328 336 338 336 339 335 324 260 195 208 221 213 217 232 244 246 239 231 227 227 223 218 214 213 210 199 190 187 184 180 181 180 175 172 170 168 167
319 318 316 314 319 327 337 341 338 334 339 344 337 338 296 257 254 246 229 224 236 244 242 237 230 225 220 212 209 207 202 193 184 182 178 177 175 173 173 170 169 166 163
317 317 317 318 323 332 334 334 332 337 344 349 332 301 270 272 277 267 260 238 236 239 235 229 230 227 218 208 202 199 192 185 183 176 172 172 170 169 167 165 163 162 162
315 318 320 320 327 328 325 335 332 342 348 344 336 331 313 305 321 319 297 273 258 256 239 223 223 214 200 192 193 190 187 185 181 171 167 166 164 163 163 163 162 158 160
313 319 323 328 333 339 344 345 347 358 355 347 348 337 335 340 347 344 336 348 353 326 195 169 193 189 171 163 169 171 173 167 161 164 163 159 159 160 159 160 161 161 160
321 328 329 332 339 349 351 353 358 6 7 351 342 337 341 357 13 12 318 32 37 52 80 102 111 127 138 137 129 120 112 115 124 140 154 156 157 157 155 156 159 160 161
331 333 333 334 341 346 351 355 354 8 17 356 348 339 353 24 39 352 355 88 97 86 80 83 102 108 108 110 111 110 109 111 114 126 149 152 152 152 151 151 154 157 159
Height
1477 1474 1471 1469 1467 1464 1462 1460 1459 1457 1455 1454 1453 1453 1453 1453 1453 1453 1453 1454 1455 1456 1456 1457 1458 1459 1461 1463 1466 1468 1471 1474 1477 1479 1483 1486 1488 1490 1493 1495 1496 1497 1499
1472 1469 1466 1464 1461 1458 1456 1454 1452 1450 1448 1447 1446 1445 1445 1445 1446 1446 1447 1448 1449 1450 1451 1452 1454 1455 1456 1458 1460 1462 1465 1468 1471 1474 1478 1481 1484 1487 1490 1492 1493 1494 1496
1468 1464 1461 1458 1455 1452 1450 1447 1445 1443 1441 1440 1438 1437 1437 1437 1438 1439 1439 1441 1442 1444 1445 1447 1448 1450 1451 1452 1454 1457 1459 1462 1465 1469 1472 1476 1480 1483 1486 1489 1490 1492 1494
1463 1459 1456 1453 1450 1447 1444 1441 1438 1436 1433 1431 1430 1429 1429 1428 1429 1430 1431 1433 1435 1436 1438 1440 1442 1444 1445 1448 1449 1451 1453 1456 1459 1463 1466 1470 1474 1477 1481 1484 1487 1489 1491
1458 1454 1451 1448 1444 1441 1438 1434 1431 1429 1426 1424 1422 1420 1420 1420 1420 1421 1422 1424 1426 1429 1431 1433 1436 1438 1440 1442 1444 1446 1448 1450 1453 1456 1460 1464 1467 1471 1475 1478 1482 1485 1488
1453 1449 1446 1442 1439 1435 1431 1428 1424 1421 1419 1416 1414 1412 1411 1411 1411 1412 1413 1415 1418 1421 1423 1426 1429 1432 1434 1436 1439 1441 1443 1445 1448 1450 1453 1457 1460 1465 1470 1474 1477 1481 1484
1448 1444 1441 1437 1433 1429 1425 1421 1418 1414 1411 1408 1406 1404 1402 1401 1402 1402 1404 1406 1409 1412 1416 1419 1423 1426 1428 1430 1433 1435 1437 1440 1443 1445 1448 1451 1455 1459 1464 1468 1471 1476 1480
1444 1439 1435 1431 1427 1422 1418 1414 1411 1407 1404 1400 1397 1395 1393 1392 1393 1394 1395 1398 1400 1404 1408 1412 1416 1419 1422 1425 1427 1430 1432 1434 1437 1440 1443 1446 1450 1454 1459 1463 1467 1473 1477
1439 1434 1430 1425 1420 1416 1412 1408 1404 1400 1397 1393 1390 1388 1386 1385 1385 1386 1388 1390 1392 1396 1401 1406 1409 1412 1416 1420 1422 1425 1427 1430 1433 1435 1438 1442 1445 1449 1453 1458 1463 1467 1471
1434 1429 1424 1419 1415 1410 1406 1401 1398 1394 1390 1387 1383 1381 1379 1378 1378 1379 1381 1383 1385 1390 1394 1399 1403 1406 1410 1414 1417 1420 1423 1426 1429 1431 1433 1436 1440 1443 1447 1451 1456 1461 1464
1429 1424 1419 1414 1410 1405 1401 1396 1392 1388 1385 1381 1378 1375 1373 1372 1372 1373 1375 1377 1380 1384 1388 1393 1397 1401 1405 1408 1412 1415 1418 1421 1424 1426 1429 1431 1435 1438 1442 1446 1451 1455 1459
1424 1419 1414 1409 1405 1401 1396 1392 1388 1384 1380 1377 1374 1371 1369 1368 1368 1368 1370 1372 1376 1380 1384 1388 1392 1395 1399 1403 1407 1411 1414 1417 1420 1422 1424 1427 1430 1433 1437 1441 1446 1450 1456
1420 1415 1410 1405 1401 1396 1392 1388 1384 1380 1377 1373 1371 1368 1366 1365 1364 1364 1366 1368 1372 1376 1379 1383 1387 1391 1395 1399 1402 1406 1409 1412 1415 1417 1420 1422 1425 1429 1433 1437 1442 1446 1452
1416 1411 1406 1401 1397 1393 1389 1385 1381 1377 1374 1371 1368 1365 1363 1362 1361 1361 1363 1365 1369 1372 1376 1380 1384 1387 1391 1394 1398 1401 1404 1407 1410 1413 1415 1418 1422 1424 1427 1431 1436 1441 1446
1413 1407 1403 1398 1394 1389 1386 1382 1378 1375 1372 1369 1366 1363 1361 1360 1360 1360 1361 1363 1366 1369 1373 1377 1381 1384 1387 1390 1393 1396 1399 1402 1405 1408 1411 1414 1417 1419 1422 1427 1431 1436 1441
1410 1405 1400 1396 1392 1387 1383 1379 1376 1373 1369 1366 1364 1362 1360 1359 1358 1358 1360 1362 1364 1367 1371 1373 1377 1380 1383 1386 1389 1392 1394 1397 1399 1402 1406 1409 1412 1414 1418 1422 1427 1432 1437
1407 1403 1398 1394 1390 1386 1382 1378 1374 1371 1368 1364 1362 1360 1358 1357 1357 1357 1358 1360 1362 1364 1367 1370 1372 1375 1378 1381 1384 1387 1389 1392 1395 1398 1400 1403 1407 1410 1413 1417 1422 1427 1433
1405 1401 1397 1393 1389 1385 1381 1377 1373 1370 1366 1363 1361 1359 1357 1356 1356 1356 1356 1358 1359 1361 1363 1366 1368 1371 1373 1376 1379 1381 1384 1387 1390 1392 1395 1398 1401 1405 1408 1413 1418 1423 1428
1404 1400 1396 1392 1388 1384 1381 1377 1373 1370 1366 1363 1360 1358 1356 1355 1355 1355 1355 1356 1357 1358 1360 1362 1364 1366 1369 1371 1374 1376 1379 1382 1384 1387 1390 1393 1396 1400 1404 1409 1414 1420 1425
1403 1399 1395 1391 1388 1384 1381 1377 1373 1370 1367 1363 1361 1358 1356 1354 1354 1353 1353 1353 1354 1355 1356 1358 1360 1362 1364 1367 1369 1372 1374 1376 1379 1382 1386 1389 1392 1396 1401 1406 1411 1416 1422
1402 1398 1395 1391 1387 1384 1381 1377 1374 1370 1367 1364 1361 1358 1356 1354 1354 1353 1351 1351 1352 1352 1353 1354 1356 1357 1360 1362 1365 1368 1370 1373 1375 1378 1382 1385 1389 1393 1398 1403 1409 1415 1421
1401 1398 1394 1391 1388 1385 1381 1378 1375 1371 1368 1364 1361 1358 1356 1354 1353 1352 1350 1350 1350 1349 1350 1350 1352 1353 1355 1358 1361 1363 1366 1369 1372 1375 1378 1382 1386 1390 1395 1401 1407 1413 1420
1400 1397 1394 1391 1389 1385 1382 1379 1376 1372 1368 1365 1362 1359 1356 1354 1353 1351 1350 1348 1347 1347 1347 1347 1348 1350 1352 1354 1357 1360 1363 1366 1369 1372 1376 1380 1384 1389 1394 1400 1406 1412 1419
1400 1398 1395 1392 1389 1387 1384 1380 1377 1374 1370 1367 1363 1360 1357 1355 1354 1352 1350 1349 1347 1346 1345 1346 1346 1348 1350 1352 1355 1357 1360 1363 1367 1371 1375 1379 1384 1389 1394 1400 1406 1412 1419
1401 1398 1395 1393 1390 1388 1385 1382 1379 1376 1373 1369 1366 1362 1359 1357 1355 1354 1352 1350 1349 1347 1346 1346 1347 1348 1350 1352 1354 1357 1359 1363 1366 1370 1375 1379 1384 1389 1394 1400 1406 1412 1419
1401 1398 1396 1394 1392 1389 1387 1384 1381 1378 1375 1372 1369 1365 1362 1360 1358 1356 1355 1354 1352 1351 1350 1350 1350 1350 1352 1353 1356 1358 1361 1364 1368 1372 1376 1380 1385 1390 1396 1402 1408 1414 1420